Grub im Wienerwald
Wetterdaten: aktuell Mittwoch, 11.12.2019 18:15
Datum Zeit Temp. A. Feuchte A. Luftdruck Regen Wind Richtung Richtung Sonnenschein UV Solar Taupunkt Windchill Windben
11.12.2019 18:15 -3,3 C 86 % 1011,9 hPa 0,0 l/m 0,0 km/h SO 131 0 min 0,0 UV-I 0 W/m -5,3 C -3,3 C 0,0 km/h
11.12.2019 18:12 -3,3 C 86 % 1011,9 hPa 0,0 l/m 0,1 km/h SO 131 0 min 0,0 UV-I 0 W/m -5,3 C -3,3 C 1,6 km/h
11.12.2019 18:09 -3,2 C 85 % 1012,0 hPa 0,0 l/m 0,0 km/h SO 131 0 min 0,0 UV-I 0 W/m -5,4 C -3,2 C 0,0 km/h
11.12.2019 18:06 -3,1 C 85 % 1012,0 hPa 0,0 l/m 0,0 km/h SO 131 0 min 0,0 UV-I 0 W/m -5,3 C -3,1 C 0,0 km/h
11.12.2019 18:03 -3,1 C 85 % 1012,1 hPa 0,0 l/m 0,0 km/h SO 131 0 min 0,0 UV-I 0 W/m -5,3 C -3,1 C 0,0 km/h
11.12.2019 18:00 -2,9 C 85 % 1012,1 hPa 0,0 l/m 0,0 km/h SO 131 0 min 0,0 UV-I 0 W/m -5,1 C -2,9 C 0,0 km/h
11.12.2019 17:57 -2,9 C 85 % 1012,1 hPa 0,0 l/m 0,0 km/h SO 131 0 min 0,0 UV-I 0 W/m -5,1 C -2,9 C 0,0 km/h
11.12.2019 17:54 -2,8 C 85 % 1012,1 hPa 0,0 l/m 0,0 km/h SO 131 0 min 0,0 UV-I 0 W/m -5,0 C -2,8 C 0,0 km/h
11.12.2019 17:51 -2,7 C 84 % 1012,1 hPa 0,0 l/m 0,0 km/h SO 131 0 min 0,0 UV-I 0 W/m -5,0 C -2,7 C 0,0 km/h
11.12.2019 17:48 -2,7 C 84 % 1012,2 hPa 0,0 l/m 0,0 km/h SO 131 0 min 0,0 UV-I 0 W/m -5,0 C -2,7 C 0,0 km/h
11.12.2019 17:45 -2,6 C 84 % 1012,2 hPa 0,0 l/m 0,0 km/h SO 131 0 min 0,0 UV-I 0 W/m -4,9 C -2,6 C 0,0 km/h
11.12.2019 17:42 -2,5 C 84 % 1012,2 hPa 0,0 l/m 0,0 km/h SO 131 0 min 0,0 UV-I 0 W/m -4,8 C -2,5 C 1,6 km/h
11.12.2019 17:39 -2,4 C 84 % 1012,2 hPa 0,0 l/m 1,5 km/h SO 131 0 min 0,0 UV-I 0 W/m -4,7 C -2,4 C 3,2 km/h
11.12.2019 17:36 -2,4 C 84 % 1012,3 hPa 0,0 l/m 1,0 km/h SO 131 0 min 0,0 UV-I 0 W/m -4,7 C -2,4 C 6,4 km/h
11.12.2019 17:33 -2,3 C 84 % 1012,3 hPa 0,0 l/m 2,4 km/h SO 131 0 min 0,0 UV-I 0 W/m -4,6 C -2,3 C 8,0 km/h
11.12.2019 17:30 -2,3 C 83 % 1012,3 hPa 0,0 l/m 1,3 km/h SO 131 0 min 0,0 UV-I 0 W/m -4,8 C -2,3 C 3,2 km/h
11.12.2019 17:27 -2,2 C 83 % 1012,3 hPa 0,0 l/m 1,3 km/h SO 131 0 min 0,0 UV-I 0 W/m -4,7 C -2,2 C 3,2 km/h
11.12.2019 17:24 -2,2 C 83 % 1012,4 hPa 0,0 l/m 0,3 km/h SO 131 0 min 0,0 UV-I 0 W/m -4,7 C -2,2 C 1,6 km/h
11.12.2019 17:21 -2,1 C 83 % 1012,4 hPa 0,0 l/m 0,4 km/h SO 131 0 min 0,0 UV-I 0 W/m -4,6 C -2,1 C 3,2 km/h
11.12.2019 17:18 -2,0 C 83 % 1012,4 hPa 0,0 l/m 0,2 km/h SO 131 0 min 0,0 UV-I 0 W/m -4,5 C -2,0 C 1,6 km/h
11.12.2019 17:15 -1,9 C 83 % 1012,6 hPa 0,0 l/m 0,3 km/h SO 131 0 min 0,0 UV-I 0 W/m -4,4 C -1,9 C 3,2 km/h
11.12.2019 17:12 -1,8 C 82 % 1012,7 hPa 0,0 l/m 0,1 km/h SO 131 0 min 0,0 UV-I 0 W/m -4,5 C -1,8 C 1,6 km/h
11.12.2019 17:09 -1,8 C 82 % 1012,7 hPa 0,0 l/m 0,0 km/h SO 131 0 min 0,0 UV-I 0 W/m -4,5 C -1,8 C 0,0 km/h
11.12.2019 17:06 -1,7 C 82 % 1012,8 hPa 0,0 l/m 0,0 km/h SO 131 0 min 0,0 UV-I 0 W/m -4,4 C -1,7 C 0,0 km/h
11.12.2019 17:03 -1,6 C 82 % 1012,8 hPa 0,0 l/m 0,0 km/h SO 131 0 min 0,0 UV-I 0 W/m -4,3 C -1,6 C 1,6 km/h
11.12.2019 17:00 -1,4 C 82 % 1012,8 hPa 0,0 l/m 0,0 km/h SO 131 0 min 0,0 UV-I 0 W/m -4,1 C -1,4 C 0,0 km/h
11.12.2019 16:57 -1,3 C 82 % 1012,8 hPa 0,0 l/m 0,1 km/h SO 131 0 min 0,0 UV-I 0 W/m -4,0 C -1,3 C 1,6 km/h
11.12.2019 16:54 -1,3 C 82 % 1012,9 hPa 0,0 l/m 0,0 km/h SO 131 0 min 0,0 UV-I 0 W/m -4,0 C -1,3 C 0,0 km/h
11.12.2019 16:51 -1,2 C 82 % 1012,9 hPa 0,0 l/m 0,0 km/h SO 131 0 min 0,0 UV-I 0 W/m -3,9 C -1,2 C 0,0 km/h
11.12.2019 16:48 -1,1 C 82 % 1013,1 hPa 0,0 l/m 0,0 km/h SO 131 0 min 0,0 UV-I 0 W/m -3,8 C -1,1 C 0,0 km/h
11.12.2019 16:45 -1,0 C 81 % 1013,1 hPa 0,0 l/m 0,1 km/h SO 131 0 min 0,0 UV-I 0 W/m -3,8 C -1,0 C 1,6 km/h
11.12.2019 16:42 -0,9 C 81 % 1013,1 hPa 0,0 l/m 0,7 km/h SO 131 0 min 0,0 UV-I 0 W/m -3,7 C -0,9 C 3,2 km/h
11.12.2019 16:39 -0,8 C 81 % 1013,1 hPa 0,0 l/m 1,7 km/h SO 131 0 min 0,0 UV-I 0 W/m -3,6 C -0,8 C 8,0 km/h
11.12.2019 16:36 -0,8 C 81 % 1013,2 hPa 0,0 l/m 0,1 km/h SO 131 0 min 0,0 UV-I 0 W/m -3,6 C -0,8 C 1,6 km/h
11.12.2019 16:33 -0,7 C 80 % 1013,3 hPa 0,0 l/m 0,0 km/h SO 131 0 min 0,0 UV-I 0 W/m -3,7 C -0,7 C 1,6 km/h
11.12.2019 16:30 -0,6 C 80 % 1013,3 hPa 0,0 l/m 0,4 km/h SO 131 0 min 0,0 UV-I 0 W/m -3,6 C -0,6 C 3,2 km/h
11.12.2019 16:27 -0,5 C 80 % 1013,3 hPa 0,0 l/m 0,5 km/h SO 131 0 min 0,0 UV-I 0 W/m -3,5 C -0,5 C 3,2 km/h
11.12.2019 16:24 -0,4 C 80 % 1013,4 hPa 0,0 l/m 1,2 km/h SO 131 0 min 0,0 UV-I 0 W/m -3,4 C -0,4 C 9,7 km/h
11.12.2019 16:21 -0,3 C 80 % 1013,4 hPa 0,0 l/m 1,4 km/h SO 131 0 min 0,0 UV-I 0 W/m -3,3 C -0,3 C 8,0 km/h
11.12.2019 16:18 -0,2 C 80 % 1013,5 hPa 0,0 l/m 1,1 km/h SO 131 0 min 0,0 UV-I 0 W/m -3,2 C -0,2 C 3,2 km/h
11.12.2019 16:15 -0,1 C 79 % 1013,5 hPa 0,0 l/m 2,6 km/h SO 131 0 min 0,0 UV-I 0 W/m -3,3 C -0,1 C 8,0 km/h
11.12.2019 16:12 -0,1 C 79 % 1013,6 hPa 0,0 l/m 1,9 km/h SO 131 0 min 0,0 UV-I 0 W/m -3,3 C -0,1 C 6,4 km/h
11.12.2019 16:09 0,1 C 79 % 1013,6 hPa 0,0 l/m 2,8 km/h SO 131 0 min 0,0 UV-I 0 W/m -3,1 C 0,1 C 6,4 km/h
11.12.2019 16:06 0,2 C 79 % 1013,7 hPa 0,0 l/m 4,7 km/h SO 131 0 min 0,0 UV-I 5 W/m -3,0 C 0,2 C 11,3 km/h
11.12.2019 16:03 0,3 C 79 % 1013,7 hPa 0,0 l/m 2,2 km/h SO 128 0 min 0,0 UV-I 5 W/m -2,9 C 0,3 C 8,0 km/h
11.12.2019 16:00 0,3 C 78 % 1013,7 hPa 0,0 l/m 4,6 km/h SO 128 0 min 0,0 UV-I 7 W/m -3,1 C 0,3 C 9,7 km/h
11.12.2019 15:57 0,4 C 78 % 1013,7 hPa 0,0 l/m 3,6 km/h SO 128 0 min 0,0 UV-I 7 W/m -3,0 C 0,4 C 11,3 km/h
11.12.2019 15:54 0,5 C 78 % 1013,8 hPa 0,0 l/m 6,2 km/h SO 126 0 min 0,0 UV-I 9 W/m -2,9 C 0,5 C 14,5 km/h
11.12.2019 15:51 0,6 C 78 % 1013,9 hPa 0,0 l/m 6,0 km/h S-SO 157 0 min 0,0 UV-I 9 W/m -2,8 C 0,6 C 14,5 km/h
11.12.2019 15:48 0,6 C 78 % 1013,9 hPa 0,0 l/m 5,6 km/h S-SO 159 3 min 0,0 UV-I 11 W/m -2,8 C 0,6 C 14,5 km/h
11.12.2019 15:45 0,7 C 78 % 1013,9 hPa 0,0 l/m 6,7 km/h S-SO 152 0 min 0,0 UV-I 12 W/m -2,7 C 0,4 C 14,5 km/h
11.12.2019 15:42 0,8 C 78 % 1014,0 hPa 0,0 l/m 8,4 km/h SO 132 0 min 0,0 UV-I 14 W/m -2,6 C -1,2 C 14,5 km/h
11.12.2019 15:39 0,8 C 78 % 1014,0 hPa 0,0 l/m 8,8 km/h SO 128 0 min 0,0 UV-I 16 W/m -2,6 C -1,5 C 17,7 km/h
11.12.2019 15:36 0,8 C 77 % 1014,0 hPa 0,0 l/m 7,4 km/h SO 144 0 min 0,0 UV-I 18 W/m -2,8 C -0,2 C 14,5 km/h
11.12.2019 15:33 0,9 C 77 % 1014,0 hPa 0,0 l/m 11,3 km/h O-SO 119 0 min 0,0 UV-I 19 W/m -2,7 C -3,5 C 20,9 km/h
11.12.2019 15:30 1,0 C 77 % 1014,1 hPa 0,0 l/m 7,5 km/h SO 142 0 min 0,0 UV-I 19 W/m -2,6 C -0,1 C 19,3 km/h
11.12.2019 15:27 1,1 C 76 % 1014,1 hPa 0,0 l/m 8,7 km/h S-SO 154 0 min 0,0 UV-I 21 W/m -2,6 C -1,1 C 17,7 km/h
11.12.2019 15:24 1,2 C 76 % 1014,1 hPa 0,0 l/m 8,6 km/h SO 143 0 min 0,0 UV-I 21 W/m -2,5 C -0,9 C 14,5 km/h
11.12.2019 15:21 1,2 C 76 % 1014,1 hPa 0,0 l/m 10,3 km/h S-SO 150 0 min 0,0 UV-I 23 W/m -2,5 C -2,4 C 22,5 km/h
11.12.2019 15:18 1,3 C 76 % 1014,2 hPa 0,0 l/m 10,5 km/h SO 146 0 min 0,0 UV-I 23 W/m -2,5 C -2,4 C 19,3 km/h
11.12.2019 15:15 1,3 C 75 % 1014,3 hPa 0,0 l/m 11,1 km/h S 173 0 min 0,0 UV-I 25 W/m -2,6 C -2,9 C 19,3 km/h
11.12.2019 15:12 1,3 C 75 % 1014,3 hPa 0,0 l/m 10,1 km/h SO 138 0 min 0,0 UV-I 25 W/m -2,6 C -2,1 C 19,3 km/h
11.12.2019 15:09 1,4 C 75 % 1014,3 hPa 0,0 l/m 8,4 km/h SO 143 0 min 0,0 UV-I 25 W/m -2,5 C -0,5 C 14,5 km/h
11.12.2019 15:06 1,4 C 75 % 1014,3 hPa 0,0 l/m 8,8 km/h S-SO 167 0 min 0,0 UV-I 25 W/m -2,5 C -0,9 C 16,1 km/h
11.12.2019 15:03 1,4 C 74 % 1014,3 hPa 0,0 l/m 10,5 km/h SO 132 0 min 0,0 UV-I 26 W/m -2,7 C -2,3 C 17,7 km/h
11.12.2019 15:00 1,5 C 74 % 1014,4 hPa 0,0 l/m 9,7 km/h SO 139 0 min 0,0 UV-I 26 W/m -2,6 C -1,6 C 22,5 km/h
11.12.2019 14:57 1,6 C 74 % 1014,4 hPa 0,0 l/m 10,0 km/h S-SO 149 0 min 0,0 UV-I 28 W/m -2,5 C -1,7 C 22,5 km/h
11.12.2019 14:54 1,6 C 73 % 1014,4 hPa 0,0 l/m 9,1 km/h SO 146 0 min 0,0 UV-I 28 W/m -2,7 C -0,9 C 17,7 km/h
11.12.2019 14:51 1,6 C 73 % 1014,6 hPa 0,0 l/m 9,4 km/h SO 130 0 min 0,0 UV-I 28 W/m -2,7 C -1,2 C 20,9 km/h
11.12.2019 14:48 1,6 C 72 % 1014,6 hPa 0,0 l/m 10,4 km/h SO 130 0 min 0,0 UV-I 30 W/m -2,9 C -2,0 C 19,3 km/h
11.12.2019 14:45 1,7 C 72 % 1014,7 hPa 0,0 l/m 11,3 km/h SO 139 0 min 0,0 UV-I 30 W/m -2,8 C -2,6 C 19,3 km/h
11.12.2019 14:42 1,7 C 71 % 1014,7 hPa 0,0 l/m 11,8 km/h S-SO 151 0 min 0,0 UV-I 30 W/m -3,0 C -2,9 C 27,4 km/h
11.12.2019 14:39 1,7 C 71 % 1014,7 hPa 0,0 l/m 9,9 km/h S 177 0 min 0,0 UV-I 30 W/m -3,0 C -1,5 C 16,1 km/h
11.12.2019 14:36 1,7 C 71 % 1014,7 hPa 0,0 l/m 11,7 km/h S 169 0 min 0,0 UV-I 32 W/m -3,0 C -2,8 C 22,5 km/h
11.12.2019 14:33 1,8 C 71 % 1014,7 hPa 0,0 l/m 11,4 km/h S 178 0 min 0,0 UV-I 32 W/m -2,9 C -2,5 C 20,9 km/h
11.12.2019 14:30 1,8 C 72 % 1014,8 hPa 0,0 l/m 8,5 km/h SO 144 0 min 0,0 UV-I 32 W/m -2,7 C -0,2 C 17,7 km/h
11.12.2019 14:27 1,8 C 72 % 1014,8 hPa 0,0 l/m 8,6 km/h SO 140 0 min 0,0 UV-I 33 W/m -2,7 C -0,3 C 19,3 km/h
11.12.2019 14:24 1,8 C 72 % 1014,9 hPa 0,0 l/m 10,3 km/h S-SO 153 0 min 0,0 UV-I 33 W/m -2,7 C -1,7 C 20,9 km/h
11.12.2019 14:21 1,8 C 72 % 1015,0 hPa 0,0 l/m 8,0 km/h S-SO 147 0 min 0,0 UV-I 33 W/m -2,7 C 0,2 C 17,7 km/h
11.12.2019 14:18 1,8 C 72 % 1015,0 hPa 0,0 l/m 11,9 km/h S-SO 150 0 min 0,0 UV-I 33 W/m -2,7 C -2,9 C 22,5 km/h
11.12.2019 14:15 1,9 C 72 % 1015,0 hPa 0,0 l/m 8,0 km/h SO 133 0 min 0,0 UV-I 35 W/m -2,6 C 0,3 C 17,7 km/h
11.12.2019 14:12 1,9 C 71 % 1015,1 hPa 0,0 l/m 7,3 km/h SO 146 0 min 0,0 UV-I 35 W/m -2,8 C 1,0 C 16,1 km/h
11.12.2019 14:09 1,9 C 71 % 1015,1 hPa 0,0 l/m 8,0 km/h S-SO 147 0 min 0,0 UV-I 35 W/m -2,8 C 0,3 C 14,5 km/h
11.12.2019 14:06 1,9 C 71 % 1015,2 hPa 0,0 l/m 7,8 km/h SO 142 0 min 0,0 UV-I 37 W/m -2,8 C 0,5 C 17,7 km/h
11.12.2019 14:03 1,9 C 71 % 1015,2 hPa 0,0 l/m 6,9 km/h SO 126 0 min 0,0 UV-I 37 W/m -2,8 C 1,4 C 14,5 km/h
11.12.2019 14:00 2,0 C 71 % 1015,2 hPa 0,0 l/m 8,4 km/h SO 138 0 min 0,0 UV-I 37 W/m -2,7 C 0,1 C 17,7 km/h
11.12.2019 13:57 2,1 C 70 % 1015,2 hPa 0,0 l/m 9,7 km/h S-SW 195 0 min 0,0 UV-I 37 W/m -2,8 C -0,9 C 19,3 km/h
11.12.2019 13:54 2,1 C 70 % 1015,3 hPa 0,0 l/m 10,7 km/h SO 141 0 min 0,0 UV-I 37 W/m -2,8 C -1,7 C 19,3 km/h
11.12.2019 13:51 2,1 C 70 % 1015,3 hPa 0,0 l/m 8,7 km/h S-SO 154 0 min 0,0 UV-I 39 W/m -2,8 C -0,1 C 17,7 km/h
11.12.2019 13:48 2,1 C 70 % 1015,4 hPa 0,0 l/m 6,7 km/h S-SO 147 0 min 0,0 UV-I 39 W/m -2,8 C 1,8 C 11,3 km/h
11.12.2019 13:45 2,2 C 69 % 1015,4 hPa 0,0 l/m 11,3 km/h SO 144 0 min 0,0 UV-I 39 W/m -2,9 C -2,0 C 19,3 km/h
_ Min-Zeit 08:00 12:48 18:12 - 20:51 - - - - - 08:00 08:00 20:54
Minimum _ -7,2 C 65 % 1011,9 hPa - 0,0 km/h - - - - - -8,1 C -7,2 C 0,0 km/h
_ Max-Zeit 13:03 11:00 20:39 19:00 12:00 - - 07:48 11:36 11:48 19:00 13:48 14:42
Maximum _ 2,2 C 98 % 1025,8 hPa 0,0 l/m 12,6 km/h
S-SO
- - 3 min 1,1 UV-I 330 W/m -0,9 C 1,8 C 27,4 km/h
SO
Durchschnitt _ -2,1 C 88 % 1021,0 hPa #0,0 l/m 3,3 km/h SO - #4:45 h 0,9 UV-I 154 W/m -3,9 C -2,7 C 6,4 km/h
Schulla EDV